TimeAKDT,TemperatureF,Dew PointF,Humidity,Sea Level PressureIn,VisibilityMPH,Wind Direction,Wind SpeedMPH,Gust SpeedMPH,PrecipitationIn,Events,Conditions,WindDirDegrees,DateUTC
12:53 AM,45.0,44.1,97,29.52,10.0,East,4.6,-,0.00,Rain,Light Rain,80,2013-07-03 08:53:00
1:25 AM,44.6,44.6,100,29.53,9.0,East,4.6,-,0.01,Rain,Light Rain,100,2013-07-03 09:25:00
1:53 AM,45.0,44.1,97,29.53,10.0,East,5.8,-,0.01,Rain,Light Rain,80,2013-07-03 09:53:00
2:53 AM,45.0,44.1,97,29.54,10.0,East,5.8,-,0.01,Rain,Light Rain,80,2013-07-03 10:53:00
3:53 AM,46.0,43.0,89,29.55,10.0,ESE,12.7,-,0.03,,Overcast,120,2013-07-03 11:53:00
4:53 AM,46.0,43.0,89,29.55,10.0,SE,15.0,-,0.00,Rain,Light Rain,140,2013-07-03 12:53:00
5:53 AM,46.0,43.0,89,29.55,10.0,SE,12.7,-,0.01,Rain,Light Rain,140,2013-07-03 13:53:00
6:53 AM,46.0,43.0,89,29.56,7.0,SE,13.8,-,0.01,Rain,Light Rain,140,2013-07-03 14:53:00
7:53 AM,46.0,43.0,89,29.57,10.0,SE,17.3,21.9,0.02,Rain,Light Rain,140,2013-07-03 15:53:00
8:53 AM,46.0,43.0,89,29.57,10.0,SE,16.1,-,0.01,Rain,Light Rain,140,2013-07-03 16:53:00
9:53 AM,46.0,43.0,89,29.58,10.0,SE,16.1,-,0.02,Rain,Light Rain,140,2013-07-03 17:53:00
10:53 AM,46.0,43.0,89,29.58,6.0,SSE,17.3,25.3,0.00,Rain,Light Rain,150,2013-07-03 18:53:00
11:53 AM,45.0,42.1,90,29.59,9.0,SSE,13.8,-,0.01,,Overcast,150,2013-07-03 19:53:00
12:05 PM,44.6,42.8,93,29.60,2.0,SSE,13.8,-,0.00,Rain,Light Rain,150,2013-07-03 20:05:00
12:35 PM,44.6,42.8,93,29.60,4.0,SSE,11.5,-,0.01,Rain,Light Rain,150,2013-07-03 20:35:00
12:53 PM,44.1,42.1,93,29.61,6.0,SE,12.7,-,0.01,Rain,Light Rain,140,2013-07-03 20:53:00
1:53 PM,45.0,43.0,93,29.62,10.0,SSE,12.7,-,0.01,,Overcast,150,2013-07-03 21:53:00
2:36 PM,44.6,42.8,93,29.63,10.0,SSE,12.7,-,0.00,,Overcast,160,2013-07-03 22:36:00
2:53 PM,45.0,41.0,86,29.63,10.0,SSE,13.8,-,0.00,,Overcast,150,2013-07-03 22:53:00
3:53 PM,45.0,41.0,86,29.65,10.0,SSE,16.1,-,0.00,,Overcast,150,2013-07-03 23:53:00
4:53 PM,45.0,41.0,86,29.66,10.0,SSE,12.7,-,0.00,Rain,Light Rain,150,2013-07-04 00:53:00
5:11 PM,44.6,41.0,87,29.65,10.0,SSE,13.8,-,0.00,,Overcast,160,2013-07-04 01:11:00
5:53 PM,45.0,41.0,86,29.65,10.0,SE,10.4,-,0.00,Rain,Light Rain,130,2013-07-04 01:53:00
6:00 PM,44.6,41.0,87,29.65,10.0,SE,12.7,-,0.00,,Overcast,130,2013-07-04 02:00:00
6:53 PM,45.0,39.9,82,29.66,10.0,SE,10.4,-,0.00,,Overcast,140,2013-07-04 02:53:00
7:53 PM,45.0,39.9,82,29.66,10.0,SE,8.1,-,0.00,,Overcast,140,2013-07-04 03:53:00
8:13 PM,44.6,41.0,87,29.66,10.0,SE,9.2,-,N/A,,Overcast,140,2013-07-04 04:13:00
8:53 PM,45.0,41.0,86,29.67,10.0,SE,9.2,-,N/A,,Overcast,130,2013-07-04 04:53:00
9:03 PM,44.6,41.0,87,29.66,10.0,SE,8.1,-,N/A,,Overcast,130,2013-07-04 05:03:00
9:53 PM,45.0,39.9,82,29.67,10.0,SE,6.9,-,N/A,,Overcast,140,2013-07-04 05:53:00
10:00 PM,44.6,39.2,81,29.67,10.0,SE,8.1,-,N/A,,Overcast,140,2013-07-04 06:00:00
10:53 PM,45.0,41.0,86,29.67,10.0,ESE,5.8,-,0.00,,Overcast,110,2013-07-04 06:53:00
11:00 PM,44.6,41.0,87,29.67,10.0,East,5.8,-,N/A,,Overcast,100,2013-07-04 07:00:00
11:43 PM,44.6,41.0,87,29.67,10.0,East,8.1,-,N/A,,Overcast,90,2013-07-04 07:43:00
11:53 PM,44.1,41.0,89,29.67,10.0,East,10.4,-,N/A,,Overcast,90,2013-07-04 07:53:00